RH
44 45 40 35 39 39 43 49 47 47 52 54 50 44 47 52 50 54 63 66 60 53 55 61 63 67 70 69 66 65 67 68 66 67 69 68 69 69 68 69 69 66 65 66 61 54 47 42 38 35 33 36 42 49 61 72 78 80 81 79 76 75 73 72 71 70 69 71 68 61 63 66 64 68 71 67 67 74 79 78 75 74 74 71 69 68 70
48 49 43 38 42 45 51 61 61 58 60 60 54 57 66 63 60 68 71 67 63 58 58 64 63 63 65 62 61 64 67 70 69 65 64 65 64 63 63 64 65 64 63 62 58 53 48 43 39 36 32 31 32 34 40 50 60 69 75 75 73 70 67 64 63 63 65 69 69 65 67 68 69 75 79 77 78 81 80 78 79 81 80 77 76 76 79
48 53 53 43 45 51 54 63 71 69 63 65 70 73 74 70 63 64 67 67 63 57 58 64 61 60 62 61 66 71 72 76 78 72 70 70 66 65 67 66 64 63 62 59 55 52 49 44 38 34 33 32 32 32 33 34 39 46 53 57 55 50 45 41 43 47 52 54 54 53 54 56 59 62 64 64 65 66 67 68 71 77 81 84 86 88 88
47 52 56 55 59 60 58 65 73 73 69 69 74 76 74 70 62 60 66 65 58 59 64 61 56 58 61 62 68 73 73 77 81 82 84 81 76 77 76 73 71 68 65 61 55 51 49 43 37 33 33 33 32 31 31 31 32 33 35 36 35 32 32 30 31 34 37 37 36 35 36 37 39 40 41 44 45 45 47 49 51 56 62 67 69 68 68
53 58 65 69 70 61 60 70 69 69 73 71 71 73 73 73 71 69 69 62 58 65 68 61 57 58 58 59 63 67 72 76 76 80 85 85 84 85 82 78 77 72 66 58 49 45 46 44 38 33 31 30 30 29 28 29 30 30 31 31 30 30 31 31 31 31 30 31 32 33 34 34 34 35 35 36 36 36 37 38 40 42 44 46 48 48 47
53 65 73 71 69 62 64 74 72 69 70 68 72 76 74 74 74 69 67 65 65 68 66 61 60 59 57 56 55 57 64 71 73 75 79 81 84 85 84 84 83 80 74 63 50 44 43 44 41 37 33 31 31 32 31 31 30 31 31 31 30 31 31 31 31 31 30 31 32 35 36 35 35 35 33 33 35 37 39 39 40 42 44 44 45 45 45
63 68 71 63 64 68 68 70 70 68 66 63 65 68 68 72 73 66 63 64 65 67 65 61 58 56 53 51 50 51 55 60 65 67 68 71 77 82 85 87 84 80 76 69 61 53 47 45 43 39 36 35 34 34 34 33 32 32 32 31 31 31 32 33 33 32 31 32 33 36 38 38 38 37 34 35 36 37 37 39 41 43 43 44 44 44 45
65 63 66 66 65 65 66 71 71 69 69 67 65 65 63 67 72 68 63 63 66 67 66 66 67 63 54 47 47 48 51 54 58 59 59 61 65 71 79 83 81 75 69 63 59 57 53 48 44 43 40 36 35 34 33 33 33 33 33 32 32 32 33 33 33 33 33 33 34 37 39 39 40 39 38 38 38 38 40 42 44 45 44 44 44 44 46
72 70 66 69 71 67 68 76 73 67 68 69 71 72 63 59 67 68 61 63 67 65 62 65 73 73 61 50 47 46 48 53 53 52 53 53 54 55 59 64 67 67 63 55 49 50 52 49 47 47 44 40 38 36 33 33 34 34 35 35 34 35 36 36 35 34 34 35 35 36 37 37 37 37 38 39 39 39 40 42 44 45 44 43 43 43 45
82 83 73 74 82 82 80 80 75 71 73 71 72 77 67 57 65 68 61 63 67 66 63 61 67 72 64 56 54 49 46 51 52 48 45 43 42 41 40 42 43 44 45 42 37 38 43 45 47 47 44 44 43 39 36 37 35 35 38 39 37 37 37 38 38 38 37 36 36 36 36 35 36 36 37 38 40 41 42 44 45 45 45 44 44 43 44
71 72 71 78 85 85 84 84 75 69 75 74 73 82 76 59 61 66 60 59 62 63 63 58 61 70 69 60 56 50 46 49 50 48 45 40 37 34 34 35 35 34 35 34 31 30 32 35 39 41 41 43 43 40 37 37 36 37 38 39 38 39 38 38 39 39 38 37 37 37 38 37 38 39 38 39 41 42 43 46 48 50 51 49 47 45 44
73 70 73 83 88 83 78 78 72 67 70 67 69 85 81 59 56 61 56 55 57 59 61 58 57 64 64 56 52 50 48 47 45 45 47 44 39 36 36 36 34 32 33 32 31 31 30 30 31 33 37 41 41 39 36 33 36 39 39 36 35 36 37 38 37 36 36 36 36 37 38 38 38 38 38 38 38 39 40 41 44 49 53 53 52 50 49
86 86 90 96 94 81 67 67 68 63 62 62 70 86 81 61 54 55 54 56 56 54 57 57 53 53 54 52 52 52 50 48 47 48 48 47 44 41 40 40 37 35 34 33 33 32 30 30 28 28 35 39 37 33 30 28 31 34 35 36 35 36 37 36 35 35 34 34 35 36 36 36 37 37 37 38 40 41 43 44 46 50 54 56 56 56 56
88 91 95 98 94 77 63 64 65 60 66 75 76 73 68 61 57 55 55 57 56 55 56 53 50 53 57 58 58 58 56 55 56 54 50 49 47 44 43 42 39 39 39 37 36 34 30 30 29 26 31 35 33 31 29 28 26 26 29 33 34 36 37 35 34 34 33 33 34 34 34 35 35 36 37 39 42 45 47 49 51 55 59 59 59 60 60
87 92 92 96 93 73 59 65 68 65 73 80 70 60 60 61 58 57 57 56 55 57 55 52 55 61 62 62 62 63 63 61 59 56 52 50 50 48 46 44 42 43 44 41 40 39 34 32 34 33 33 33 31 30 29 27 25 25 25 27 30 34 35 35 35 35 34 35 34 34 35 35 35 37 39 41 45 46 48 49 50 54 60 62 62 62 62
90 98 94 92 85 67 56 62 64 58 60 61 56 55 58 57 56 58 59 56 56 58 54 53 60 62 61 65 67 67 67 64 61 61 58 56 56 53 50 49 47 47 46 44 44 43 38 35 35 37 40 39 36 33 29 25 26 27 27 26 29 33 35 36 38 37 37 37 37 36 37 37 37 39 41 43 46 46 46 47 48 52 57 60 64 65 64
78 85 83 75 67 59 57 59 57 53 55 58 57 56 56 55 55 59 59 57 60 63 58 57 62 63 63 68 69 68 70 70 67 66 62 61 61 59 56 56 55 52 50 49 47 46 43 40 36 35 39 42 43 41 35 32 34 34 33 34 34 36 38 39 39 40 41 42 42 42 42 41 41 42 43 45 45 45 45 46 47 50 53 56 61 64 64
60 65 64 61 59 59 59 59 58 58 59 61 62 63 62 60 58 60 62 59 61 68 68 65 68 69 69 73 73 72 75 75 72 69 67 65 64 63 64 64 62 60 58 55 53 51 48 46 43 39 39 41 42 43 40 39 41 40 38 38 38 37 38 38 38 40 42 43 45 45 45 46 46 45 45 46 45 45 46 47 47 50 52 54 57 61 64
70 67 59 59 61 59 60 62 63 64 64 65 67 69 67 64 64 67 69 67 68 75 75 73 75 78 79 82 82 81 81 81 78 74 73 71 69 70 73 72 70 69 66 62 61 60 56 53 49 45 43 42 41 41 41 40 41 40 39 39 38 38 39 39 40 41 42 44 46 47 47 48 48 48 48 48 48 48 48 48 50 52 53 55 58 62 65
82 70 58 63 66 62 64 68 67 68 68 67 69 72 72 73 75 76 74 74 76 80 79 79 82 84 84 86 87 87 88 87 85 82 80 79 80 80 77 74 74 77 77 74 70 67 63 60 55 51 48 44 40 40 41 41 41 42 41 40 39 40 42 44 45 46 46 48 49 50 51 51 51 52 52 51 52 52 51 51 53 54 56 59 61 61 65
76 66 60 66 67 62 66 68 67 69 70 67 70 77 80 81 83 83 81 79 79 82 84 87 88 88 89 91 92 92 93 91 88 87 85 84 85 82 77 75 76 79 83 84 83 78 72 67 63 58 53 48 44 41 41 42 42 42 43 43 44 46 48 49 50 50 51 53 55 55 57 59 60 60 60 60 59 58 56 55 56 57 59 60 59 59 62
74 71 67 64 60 59 63 64 64 68 71 72 75 80 83 85 87 88 87 84 82 83 83 85 90 93 92 91 90 91 91 89 86 86 85 84 82 79 77 77 76 74 76 81 86 87 81 76 73 67 60 55 52 48 45 45 45 44 45 47 49 51 53 53 54 55 57 58 60 62 63 64 65 66 66 66 66 65 63 61 60 62 62 60 59 60 61
72 72 73 72 67 65 68 70 70 73 76 80 83 83 85 88 89 88 89 89 87 87 83 79 85 92 90 86 86 87 86 83 81 80 80 81 80 78 77 77 76 74 73 75 81 84 81 78 77 74 68 62 57 53 52 51 49 50 52 53 54 55 57 58 58 60 61 62 63 64 65 65 66 66 68 70 71 71 70 67 65 65 64 62 64 66 68
63 65 76 82 73 63 66 72 74 78 81 86 91 90 89 91 88 84 87 88 87 89 88 82 79 83 85 82 83 86 85 81 79 78 78 78 78 77 76 77 77 76 74 73 77 80 79 79 78 76 73 68 63 62 63 60 58 59 59 59 60 61 61 62 63 63 64 65 65 66 67 68 69 71 74 78 80 79 78 74 70 67 65 65 69 75 79
62 59 74 83 73 67 72 75 79 84 84 84 89 91 88 87 83 78 80 83 81 83 87 86 81 81 84 85 86 88 88 86 84 83 82 81 79 77 76 76 76 76 76 75 75 76 78 80 80 77 75 72 69 71 73 70 67 66 65 65 66 66 65 66 67 68 69 69 69 71 72 76 82 87 90 90 88 86 84 81 77 74 76 79 82 84 84
69 68 78 78 73 79 82 75 79 88 83 78 82 82 78 78 78 74 74 77 77 78 82 85 85 83 83 85 85 85 86 86 85 84 84 84 83 81 81 80 77 76 76 77 78 80 81 82 82 80 76 72 70 73 77 75 72 70 70 70 70 69 70 71 72 73 74 74 74 75 78 85 93 98 99 98 94 90 87 86 86 86 88 89 89 87 85
75 79 79 70 71 84 83 73 79 87 80 74 76 74 70 71 71 70 71 72 74 78 80 81 83 84 83 82 83 84 85 83 81 81 82 82 83 86 87 87 84 81 80 81 84 87 87 85 84 82 78 74 73 75 78 79 77 74 73 73 73 73 74 74 75 76 76 77 77 78 81 88 96 99 100 101 98 93 88 86 88 89 89 88 88 86 83
77 79 79 75 78 86 83 76 81 83 75 71 71 68 67 70 71 73 76 75 77 81 81 78 79 84 87 87 87 89 89 85 81 80 80 81 84 88 89 88 88 87 87 88 90 90 88 86 85 84 80 76 75 77 81 81 80 77 75 75 75 75 75 75 76 77 77 78 80 81 84 90 96 100 101 101 97 92 88 86 86 85 84 83 81 75 68
77 78 82 83 84 85 84 81 82 81 76 73 73 70 69 73 78 83 84 83 84 88 87 82 79 82 86 89 92 93 92 89 85 83 84 88 91 92 91 90 91 91 91 92 90 87 84 83 83 83 81 77 74 78 84 86 82 78 76 75 75 74 75 75 77 79 81 83 85 86 89 93 97 100 100 97 93 88 86 83 81 78 75 72 66 59 55
79 84 87 88 86 86 86 85 85 85 80 78 80 79 75 78 86 91 90 89 90 92 91 88 85 85 85 87 93 96 94 93 93 92 94 96 95 94 95 97 96 95 94 94 93 89 85 83 82 80 80 78 74 77 85 88 83 77 74 74 74 74 75 77 79 82 85 87 88 89 91 93 95 96 95 91 87 84 82 80 76 73 71 67 59 53 53
84 89 89 89 89 86 84 87 89 87 82 81 85 87 85 87 91 93 92 93 92 90 89 89 88 87 84 83 89 95 95 96 99 99 99 98 96 96 99 100 99 99 99 98 99 98 94 92 89 82 79 78 74 74 83 88 82 74 73 73 74 76 78 80 82 85 87 88 89 90 91 92 93 91 88 87 86 85 83 80 75 71 69 66 60 55 54
86 90 87 87 91 87 82 86 89 85 84 87 89 89 89 89 90 91 92 90 86 83 86 88 86 81 78 81 89 94 95 98 101 99 97 97 97 98 100 100 100 102 101 99 101 101 99 99 96 90 85 80 71 71 81 85 79 73 72 72 75 80 83 82 82 85 87 88 88 88 88 90 92 91 89 87 86 84 82 77 74 72 69 66 62 59 58
85 90 88 88 92 90 87 89 88 84 87 91 89 87 86 86 88 90 87 83 82 82 85 85 79 74 77 86 92 92 94 99 100 98 97 99 99 99 101 101 100 100 100 100 101 100 100 101 99 94 92 86 75 73 81 84 78 73 72 74 79 84 85 84 84 87 89 90 90 89 87 85 86 86 85 84 81 79 76 72 69 67 64 61 61 61 61
82 86 87 88 90 87 88 91 89 87 89 89 88 89 85 80 80 81 78 78 83 83 80 77 73 75 84 91 88 87 94 101 100 98 100 100 100 100 100 100 100 100 100 101 101 100 101 101 98 96 95 88 80 80 86 86 80 74 74 80 86 87 86 87 88 91 93 93 93 92 89 83 77 72 69 68 66 64 62 60 58 58 59 61 63 64 61
73 77 79 80 80 77 80 85 87 88 90 91 92 91 81 70 69 70 71 76 80 76 71 70 68 74 87 90 82 84 97 102 99 100 102 100 99 100 100 100 101 100 99 100 101 100 101 100 100 101 96 87 85 91 93 88 81 78 81 86 88 86 86 89 90 92 94 93 90 90 89 87 82 73 66 63 61 59 58 58 57 57 60 63 64 63 60
74 80 82 80 75 72 74 77 77 80 85 86 83 74 64 59 62 65 69 73 71 64 64 63 57 63 82 88 79 81 96 101 99 101 101 97 97 100 100 100 101 100 100 101 101 100 100 100 98 96 91 89 94 100 94 84 81 83 85 86 86 85 88 91 92 93 93 89 86 86 87 88 87 82 75 71 70 68 68 67 65 62 61 62 62 63 64
74 78 80 78 75 72 72 71 70 73 77 75 67 59 57 60 65 68 71 71 64 58 60 57 47 53 76 85 77 77 91 99 99 99 98 94 95 99 100 100 101 100 100 101 100 100 101 99 94 91 93 97 100 96 86 80 83 86 86 85 86 88 90 91 93 95 94 90 86 84 84 85 86 83 79 76 74 73 72 72 69 67 67 67 68 69 70
72 73 73 73 74 73 71 70 71 73 76 75 71 69 69 69 69 69 69 63 55 54 56 50 41 50 72 82 77 76 85 93 95 96 93 91 93 98 100 100 101 100 100 100 101 100 101 100 98 98 99 98 93 86 82 83 86 86 85 86 89 90 89 88 88 90 91 90 87 85 84 85 86 85 82 79 77 75 75 74 73 74 76 77 77 76 75
75 76 74 74 74 73 72 74 76 77 77 77 74 70 64 59 56 56 53 50 49 52 50 41 37 50 69 78 76 75 81 86 90 92 91 89 90 95 98 99 100 101 100 100 100 100 100 100 100 98 97 93 89 86 86 87 87 86 86 87 89 88 86 85 85 86 85 85 84 84 84 85 85 85 83 80 77 77 78 79 78 79 80 79 79 77 75
80 79 77 75 74 74 75 76 76 74 72 69 66 61 53 47 46 46 44 45 50 52 45 35 36 49 64 73 74 75 77 80 83 87 88 87 88 90 94 98 100 101 100 100 101 100 100 100 99 99 98 96 93 91 90 89 87 86 86 87 87 86 84 82 82 82 81 80 80 81 82 82 82 82 81 80 79 79 80 80 80 79 78 78 77 77 77
79 77 77 77 76 75 74 72 70 67 62 58 57 55 50 45 44 43 42 44 48 49 43 36 37 47 59 68 71 72 74 76 79 81 83 86 88 89 92 96 100 101 100 100 101 100 100 100 100 101 100 97 92 91 91 89 87 85 85 86 85 82 80 79 79 79 78 77 77 78 79 78 79 80 79 78 79 80 79 79 79 79 79 79 79 79 80
78 77 81 81 77 73 71 69 68 65 58 53 51 49 46 43 43 43 43 43 46 49 46 39 38 46 57 63 66 69 73 75 76 77 79 84 88 90 91 93 97 99 100 100 100 100 101 101 100 100 100 98 95 93 91 89 87 86 85 86 84 81 77 77 77 76 75 74 75 76 77 76 76 77 78 77 79 80 80 80 81 81 82 82 83 83 85
77 78 81 80 75 71 68 66 67 67 64 58 53 47 43 43 44 44 43 41 43 47 49 44 40 44 52 57 61 66 70 71 72 74 76 79 82 85 87 88 89 91 94 97 99 100 100 100 100 101 100 98 96 93 89 86 85 85 86 87 86 82 78 77 77 75 74 74 73 74 74 74 74 75 76 76 78 79 79 80 82 84 86 87 88 89 91
75 78 79 75 72 68 65 65 68 69 68 64 55 46 41 43 44 44 44 41 39 42 48 49 45 43 45 51 59 65 67 67 69 72 74 75 77 80 80 78 77 78 81 86 92 96 99 101 100 99 97 96 94 91 88 86 86 88 90 90 87 82 79 79 77 75 74 74 74 74 74 74 74 75 76 77 78 80 81 83 85 86 88 90 92 94 96
74 75 74 71 70 67 65 65 66 63 63 63 58 50 44 42 42 43 44 41 37 38 42 47 49 46 43 46 56 64 68 67 67 69 74 78 81 80 76 73 73 73 73 75 80 86 93 98 98 96 96 96 95 94 93 92 92 92 93 91 89 86 84 82 80 79 79 79 78 78 78 78 78 78 79 81 83 85 87 89 91 93 94 95 96 97 98
72 71 70 71 70 66 61 60 59 59 60 61 57 50 45 42 41 43 44 42 38 36 36 42 48 49 44 43 49 58 65 67 66 67 71 75 78 78 74 71 71 72 71 72 74 77 82 87 91 93 94 95 95 95 96 97 96 95 94 93 92 91 88 86 85 84 83 82 82 81 81 81 83 84 87 89 91 93 95 97 98 99 99 99 99 100 100
71 72 72 71 69 64 59 58 61 64 62 56 50 46 43 39 38 41 42 42 41 38 35 37 43 47 47 45 43 46 53 60 63 65 66 67 69 71 72 70 69 70 70 71 73 74 74 75 79 83 86 88 89 90 92 92 91 91 90 88 86 85 84 83 83 83 82 82 83 83 84 86 87 89 92 94 96 96 97 98 99 100 101 101 101 100 100
71 72 70 67 65 63 61 62 67 70 67 60 56 56 54 50 45 43 42 42 42 39 36 35 36 40 46 48 44 40 43 49 53 57 61 62 63 66 70 70 70 70 70 71 73 74 72 72 72 73 75 77 78 79 80 81 80 80 79 77 76 76 76 78 80 82 80 78 77 78 83 90 92 90 90 92 93 94 93 91 91 92 93 96 99 100 100
68 67 66 65 66 66 64 66 71 72 68 65 62 60 61 62 58 50 44 43 43 40 38 37 33 33 40 46 44 40 40 44 48 54 60 61 62 64 67 69 70 71 71 72 73 73 72 72 71 70 70 71 73 74 75 76 76 76 77 77 77 77 77 78 80 80 79 76 72 71 77 83 86 84 83 84 87 89 88 85 83 79 76 79 91 100 100
71 72 72 72 71 68 66 68 69 67 64 64 62 60 61 65 64 56 48 45 43 41 39 38 35 33 36 39 39 37 39 43 49 54 58 60 61 62 64 66 69 70 70 70 71 71 71 72 72 71 71 71 72 73 74 75 76 76 76 77 77 77 78 78 77 76 76 76 74 73 73 73 73 72 72 73 76 79 79 79 79 73 60 57 74 94 102
73 75 71 67 65 65 64 64 63 61 61 62 62 62 63 66 66 61 53 46 44 43 42 39 37 37 36 36 37 39 40 42 47 52 55 57 59 61 62 64 68 69 69 68 68 67 67 68 70 72 72 72 73 73 74 75 76 77 76 75 75 75 74 73 73 73 74 75 75 74 71 67 64 64 63 63 65 68 68 70 73 66 48 36 43 62 75
65 64 61 60 63 65 65 63 62 63 64 64 65 66 67 68 68 65 58 50 45 44 43 41 40 40 39 39 41 43 42 42 44 48 51 53 56 56 57 61 66 68 69 70 69 67 66 66 69 72 72 71 71 72 73 73 75 77 76 75 74 72 69 66 64 64 67 70 70 67 64 60 57 57 59 59 59 61 62 61 58 51 37 25 23 28 33
Wind_Speed
3 4 4 4 5 4 3 3 3 3 3 6 6 2 1 4 5 4 4 3 4 1 4 5 5 4 2 1 3 2 1 2 1 4 5 5 5 4 5 6 6 7 7 6 8 12 15 18 19 19 19 18 16 14 10 8 8 9 10 11 11 11 10 9 8 8 8 6 5 7 10 8 9 11 13 16 19 20 19 16 13 13 13 14 14 13 14
4 4 3 5 6 5 4 5 4 3 4 6 6 3 2 5 5 4 6 8 4 2 3 5 5 4 1 3 6 6 6 6 3 3 5 4 5 4 4 4 3 4 4 5 8 11 13 16 17 18 19 19 19 18 16 13 10 8 8 7 7 6 4 3 4 4 5 6 6 7 8 7 8 10 13 16 16 13 11 8 8 8 9 10 11 12 13
2 4 4 5 6 6 6 6 6 4 6 6 6 4 3 5 5 4 8 9 5 4 3 5 5 5 6 8 8 8 7 7 6 5 3 2 3 4 4 4 4 4 4 4 6 8 11 14 16 18 18 18 18 17 16 16 14 12 11 9 8 7 6 5 4 4 4 4 5 5 5 5 6 6 6 7 6 4 3 2 2 3 4 6 9 10 11
1 2 3 4 6 8 7 6 7 6 5 4 4 3 3 1 4 5 7 6 1 4 4 5 7 8 10 10 8 8 7 7 7 7 6 5 4 5 6 6 6 6 5 5 5 5 7 11 15 18 18 17 16 15 14 14 13 12 12 11 10 9 8 7 6 6 5 4 4 5 6 7 8 8 8 8 7 7 6 5 5 4 3 2 2 2 2
2 4 1 2 5 6 3 3 3 3 3 6 5 5 6 4 3 5 4 3 2 3 3 5 8 10 11 9 7 6 6 7 8 8 8 7 6 6 7 7 7 6 6 7 9 8 6 7 10 14 15 15 14 13 12 12 11 10 10 10 9 8 8 7 7 6 6 5 5 6 7 7 7 8 8 7 7 7 6 6 5 5 5 5 4 3 3
2 5 3 3 3 1 3 5 2 2 4 8 9 6 6 6 4 3 3 2 3 4 4 6 8 9 8 6 6 6 6 7 8 8 8 7 6 6 7 7 7 8 10 12 13 14 11 7 6 7 9 11 12 12 11 10 10 9 9 8 7 7 6 6 6 5 4 4 5 5 6 6 5 5 5 5 5 5 5 5 4 4 4 3 3 4 5
2 2 4 4 2 3 2 3 3 5 5 10 14 9 6 7 7 5 5 6 5 4 4 4 6 7 6 6 8 8 8 7 7 8 8 7 7 6 6 7 8 11 16 19 19 18 16 13 10 8 8 9 10 10 10 10 9 9 8 8 8 6 5 5 5 4 3 2 2 2 3 3 2 2 3 3 3 4 4 4 3 3 3 4 5 6 7
2 1 3 2 4 3 1 4 3 4 2 5 10 9 8 7 6 4 5 5 5 4 4 3 1 2 3 6 8 9 8 7 7 7 6 6 6 5 5 7 8 10 12 13 13 15 15 15 15 12 9 8 8 9 10 10 10 10 10 10 10 8 8 7 6 5 4 4 4 4 3 2 2 2 3 4 4 5 5 4 4 4 4 5 6 7 8
3 3 2 1 1 1 1 3 2 1 1 2 4 5 3 5 4 3 3 5 6 5 5 5 4 3 4 6 7 8 9 8 7 7 7 7 7 7 7 8 8 6 5 6 7 7 7 8 10 10 11 10 7 5 6 8 9 9 10 11 10 9 8 8 7 7 6 5 6 6 4 3 4 4 5 5 6 6 6 6 5 5 6 6 7 9 10
3 5 3 2 2 3 5 4 4 3 3 4 3 5 1 4 5 3 2 5 5 5 5 6 4 3 6 5 5 7 8 8 8 9 11 13 14 14 13 12 8 6 5 5 5 5 3 1 1 2 6 7 8 8 6 4 5 5 5 6 6 6 5 5 5 5 4 4 4 4 4 4 4 5 5 6 6 7 7 7 8 8 8 8 9 10 11
2 5 4 3 3 4 5 6 7 6 4 3 3 5 1 2 4 3 3 6 5 5 5 6 4 5 4 1 4 5 7 7 7 7 10 14 18 18 18 18 17 14 9 5 5 8 8 5 3 3 5 5 8 12 9 4 2 3 2 0 3 2 1 3 3 2 1 1 1 2 3 3 4 5 5 6 7 8 8 9 9 9 9 9 10 11 12
2 4 3 2 3 3 4 5 6 6 3 3 5 2 3 1 2 1 3 6 4 4 5 5 5 5 2 2 4 5 6 7 7 8 9 12 15 18 19 19 18 18 16 13 13 15 15 13 10 6 6 9 11 14 12 7 4 4 4 6 9 8 5 4 4 4 3 2 1 1 1 2 3 4 6 8 9 10 10 10 10 10 9 10 10 11 12
3 4 3 1 1 1 4 5 6 6 2 4 4 4 6 3 2 1 4 5 3 4 5 4 3 1 1 3 4 5 5 5 7 10 11 12 12 15 17 18 18 18 18 17 16 16 17 16 15 12 7 9 11 11 11 10 8 8 10 12 13 11 9 8 7 6 6 5 4 3 2 3 3 4 6 8 9 10 10 10 9 8 8 9 10 11 10
2 3 3 1 1 2 5 5 5 5 1 3 2 2 2 4 3 2 3 4 3 3 4 3 2 2 4 4 4 4 4 4 6 9 12 14 15 15 15 15 16 16 17 17 17 16 17 16 15 15 10 7 11 12 13 14 12 10 11 13 14 13 11 10 9 9 8 7 6 5 5 5 5 5 6 7 8 8 7 7 6 6 8 9 10 10 10
2 3 3 2 2 2 7 5 3 4 2 2 1 2 2 2 3 3 3 2 2 2 2 0 3 4 4 4 4 5 5 4 5 8 10 12 14 16 16 14 14 14 14 14 14 15 16 16 15 15 13 9 11 14 15 15 14 13 13 13 14 14 13 11 10 10 9 8 8 8 7 7 6 6 7 7 7 6 6 5 5 5 7 9 10 11 11
1 2 2 2 2 3 6 3 3 2 2 1 2 2 2 1 1 2 2 1 1 1 1 2 3 3 4 4 4 4 5 5 5 7 8 10 12 14 15 15 15 15 14 12 12 13 15 15 14 14 15 14 13 13 16 16 14 13 14 14 14 14 13 12 11 11 10 9 9 9 9 9 9 9 8 8 8 7 7 7 6 6 7 9 11 12 12
2 2 2 3 2 2 4 4 3 1 2 2 2 4 3 1 1 1 2 1 3 2 1 2 3 3 3 4 4 4 4 5 6 8 10 11 12 13 13 14 15 16 15 13 13 13 14 14 14 14 14 15 15 13 12 11 10 11 12 13 14 14 13 12 11 10 10 9 9 9 9 10 10 10 10 11 10 10 10 10 9 9 9 10 12 14 14
4 5 4 3 2 1 3 4 2 2 3 2 3 4 4 1 1 0 1 1 4 4 2 3 3 4 5 5 5 5 4 5 7 10 12 13 14 14 14 15 15 16 15 14 13 13 13 13 13 14 14 14 14 13 11 7 7 6 7 9 10 11 11 11 10 9 10 10 10 10 10 10 10 10 11 11 12 12 13 13 13 12 12 13 14 16 17
4 3 0 1 2 1 1 2 3 3 3 1 2 3 3 2 2 1 1 2 3 3 2 3 4 5 5 5 6 6 5 5 7 9 11 13 14 15 16 17 17 18 17 16 15 14 14 14 14 14 16 16 16 15 13 10 9 8 8 9 9 9 10 10 10 11 12 12 12 12 11 11 11 12 12 13 14 14 15 15 16 15 15 14 15 16 18
2 2 3 2 1 2 1 2 2 2 2 1 0 1 1 1 0 1 1 1 0 1 2 2 3 4 5 4 5 5 5 5 7 9 11 12 13 13 15 16 18 19 19 19 19 18 17 16 15 16 18 19 20 19 18 15 13 12 12 12 11 11 11 11 12 12 12 13 13 12 13 13 13 14 15 15 16 17 17 17 18 17 16 16 15 16 17
2 1 2 1 1 3 3 1 1 1 1 1 1 3 3 3 3 3 4 4 3 3 3 3 2 3 5 5 5 5 5 5 8 10 12 12 12 13 14 15 16 17 18 20 21 21 20 18 16 16 17 19 20 21 20 18 16 16 15 14 13 13 13 13 13 13 13 13 13 13 14 14 14 14 15 15 17 18 18 18 18 17 17 17 16 16 18
0 3 3 2 3 2 4 2 2 3 3 2 2 3 3 3 3 2 3 4 4 5 5 5 4 3 4 6 6 6 6 7 10 12 13 14 14 14 15 15 15 16 18 19 20 20 20 18 16 16 17 17 18 19 19 18 17 16 16 15 15 14 14 14 14 14 13 14 14 14 15 15 15 16 16 17 18 19 19 19 19 19 19 19 18 18 19
4 6 5 4 3 2 4 3 3 4 3 3 4 4 3 2 1 1 2 2 3 4 5 7 5 4 5 8 8 7 8 11 13 14 14 15 16 17 17 16 16 17 19 20 20 21 21 20 17 16 16 17 18 19 19 18 17 15 16 16 16 16 15 15 14 14 14 15 15 16 17 17 17 18 18 18 19 19 20 20 19 20 20 20 20 20 20
3 4 5 5 4 3 4 4 3 4 2 5 5 3 3 2 1 2 3 2 2 3 4 6 7 7 9 11 11 9 10 14 15 16 17 17 18 19 19 17 17 17 19 20 21 21 23 23 21 18 16 15 16 17 17 17 16 15 16 16 16 15 15 14 14 15 15 15 15 16 16 16 16 17 18 18 18 17 17 17 16 17 19 20 21 21 20
3 3 5 5 5 4 3 2 1 1 4 7 5 2 2 2 2 3 3 2 3 4 4 6 9 11 11 12 13 12 13 16 17 18 19 19 19 19 19 18 18 18 19 20 21 22 23 23 22 20 17 13 12 14 15 16 15 14 14 14 14 13 13 14 14 14 14 14 13 14 14 15 15 15 16 17 17 15 13 12 12 15 16 17 17 17 16
3 4 3 2 1 1 1 1 2 3 5 7 5 2 2 2 2 3 3 3 5 7 7 7 10 12 12 12 13 14 15 18 19 20 19 18 18 19 20 20 21 20 21 22 21 21 21 21 20 20 18 14 12 12 13 14 15 13 12 12 13 13 13 13 13 12 12 11 12 12 13 13 13 13 13 15 16 15 12 9 8 10 11 10 10 12 14
2 3 3 2 3 3 2 1 3 4 5 7 6 3 3 4 3 4 5 5 7 9 10 9 10 12 13 13 13 15 16 18 18 18 17 17 18 19 20 21 21 21 21 21 20 19 19 20 20 20 19 16 13 13 11 13 14 13 12 12 12 11 10 9 9 9 9 10 10 11 11 11 11 12 13 13 15 16 15 13 13 13 13 13 12 12 14
2 1 3 3 4 4 2 4 6 7 5 5 5 4 4 5 4 4 4 5 8 9 11 11 11 12 13 13 13 14 15 16 17 16 17 17 18 19 19 20 20 20 20 20 18 18 19 20 19 20 21 18 14 13 11 12 13 13 12 10 9 8 7 6 6 7 7 8 8 9 9 9 9 10 12 13 14 15 15 16 17 18 18 17 17 17 18
2 1 1 3 4 5 6 6 6 5 3 3 3 3 4 4 3 3 3 5 7 8 10 13 13 13 14 14 14 13 13 15 17 17 17 18 18 19 20 20 21 20 20 19 19 19 20 21 20 21 23 20 15 13 10 10 12 12 10 8 6 5 4 4 4 4 4 4 5 6 6 6 7 8 10 12 13 14 16 18 21 22 22 22 23 23 22
4 2 3 3 4 7 7 5 4 3 3 3 2 1 3 2 2 3 4 6 7 8 10 13 15 15 16 15 14 13 14 16 18 18 18 19 20 20 20 19 18 17 17 18 19 19 20 20 20 22 25 23 18 13 10 8 10 10 7 5 4 3 2 1 1 1 3 4 3 1 1 3 7 10 12 14 16 18 20 21 23 24 24 23 25 27 26
3 2 4 4 5 6 5 4 4 4 3 2 2 1 1 2 2 4 5 5 6 8 12 14 15 15 16 16 15 15 16 17 17 18 19 19 20 20 19 18 17 16 16 17 18 19 19 18 19 21 24 24 21 16 11 8 10 8 5 5 5 3 1 1 4 7 8 7 5 5 6 8 11 14 17 18 20 21 22 22 23 23 23 22 23 26 27
3 2 2 3 3 4 4 3 4 3 2 2 2 2 2 2 3 5 5 6 8 11 13 14 14 16 17 16 15 15 16 17 17 17 18 19 19 19 19 19 18 19 19 19 20 20 19 19 19 20 19 18 19 17 11 10 12 9 7 7 6 3 1 3 6 7 7 7 7 8 9 10 13 17 20 21 22 22 22 21 22 22 22 21 21 23 24
5 2 2 3 4 3 3 3 4 4 4 4 3 4 5 5 6 7 8 10 12 13 14 14 16 18 18 15 13 14 16 16 15 15 17 18 19 20 21 20 19 18 18 18 18 18 19 20 21 19 15 12 14 13 11 12 14 11 9 8 5 2 2 5 6 5 4 5 7 8 9 10 11 15 18 19 20 21 20 20 20 20 19 18 19 19 19
6 5 5 5 5 4 4 4 4 4 4 4 4 6 6 6 8 10 12 13 13 13 15 17 19 19 15 10 11 14 15 12 10 12 15 18 19 21 22 21 17 14 11 10 11 12 15 18 19 17 14 11 10 11 12 14 14 12 10 8 4 3 4 6 5 2 3 6 6 6 8 9 9 11 14 16 17 17 17 17 17 16 16 15 15 15 14
6 6 5 6 6 6 6 6 5 5 4 3 5 6 7 8 10 12 13 13 12 14 17 18 18 16 11 7 10 14 14 12 12 14 16 18 20 21 21 20 17 13 9 8 8 7 8 12 13 12 11 9 9 11 13 15 14 13 10 7 4 4 5 5 2 1 3 4 3 4 7 8 8 9 10 12 14 14 14 13 13 12 13 12 12 12 12
6 4 3 5 7 7 8 9 8 7 6 6 6 7 8 10 11 13 14 14 14 16 16 14 14 13 8 5 10 14 14 13 14 16 17 19 20 20 19 18 17 15 13 14 14 10 2 4 6 9 10 10 11 14 16 17 16 13 9 7 5 5 5 3 1 1 2 2 3 5 6 7 8 7 7 9 10 10 10 10 9 10 11 11 11 12 13
7 7 6 7 8 8 9 10 9 8 7 7 7 8 10 12 13 14 15 15 15 14 12 9 11 11 7 4 9 13 13 13 14 15 16 18 19 18 17 19 21 20 19 19 18 13 7 7 9 12 11 12 16 19 19 17 15 12 9 8 7 6 6 6 6 6 6 5 5 5 6 7 9 8 8 9 9 8 9 10 11 12 13 13 14 15 16
7 8 9 10 9 9 9 8 7 7 7 7 8 10 12 13 14 15 14 12 11 10 6 5 7 9 5 4 8 12 13 14 15 15 17 18 18 15 16 20 24 23 21 19 17 15 13 12 12 13 15 18 22 22 18 15 13 12 10 8 7 7 7 7 8 8 7 7 7 8 8 9 10 11 11 11 10 11 12 13 14 15 16 16 17 18 19
5 6 9 10 10 9 8 7 7 7 7 8 10 11 11 11 10 9 8 8 8 5 2 2 5 5 3 3 6 9 12 14 15 16 17 18 17 15 16 20 23 21 18 17 17 17 17 17 17 18 19 21 21 19 16 14 13 12 10 9 8 7 8 7 7 8 8 9 10 11 11 12 13 14 15 15 15 15 15 16 17 18 18 18 18 18 18
7 8 10 11 11 10 9 8 8 9 9 9 10 10 9 7 6 4 5 7 7 3 1 1 4 3 1 2 4 8 11 13 15 16 16 17 17 17 18 22 24 22 19 19 18 16 16 17 19 19 19 18 18 17 15 13 12 11 10 10 9 9 9 9 9 10 11 11 12 13 14 15 16 17 18 18 18 18 17 17 18 18 17 17 17 17 16
9 10 11 12 12 11 10 8 8 8 9 9 10 9 7 6 5 4 5 6 5 2 2 3 4 3 1 1 3 6 9 11 14 16 17 18 17 15 14 17 21 22 20 20 19 17 16 16 17 17 17 17 17 16 14 12 11 12 12 12 11 12 12 11 11 12 13 13 14 15 15 16 17 18 18 18 18 18 18 17 17 16 16 15 15 15 15
11 11 12 12 12 11 10 9 9 9 10 10 10 9 7 6 4 4 4 5 4 1 2 3 4 3 3 3 4 5 7 8 11 14 16 17 16 14 12 14 19 21 20 19 20 20 18 17 16 16 15 16 16 14 13 12 13 14 14 14 13 13 13 13 13 14 14 15 16 16 17 17 18 18 18 18 18 17 17 16 16 15 14 14 13 13 13
13 13 13 13 13 13 12 11 10 11 12 12 10 7 7 6 4 4 3 3 3 1 2 3 4 4 4 5 6 7 7 6 7 9 12 14 16 15 13 14 17 19 19 20 21 21 20 19 18 17 16 17 16 15 14 14 14 15 15 15 15 15 15 15 15 15 15 16 17 17 17 17 18 18 17 17 17 15 15 15 14 14 13 12 11 11 10
15 15 15 15 15 15 13 12 11 11 12 12 10 8 8 7 4 4 4 3 3 2 2 2 4 5 5 6 8 8 8 7 6 7 9 11 14 15 16 16 17 18 19 20 20 20 19 18 17 17 18 18 18 17 16 16 16 16 16 16 16 16 16 16 16 16 16 16 16 16 15 15 15 15 14 14 14 13 12 12 11 11 10 10 9 9 8
16 17 18 18 17 16 14 13 11 11 11 12 10 9 10 9 7 5 5 4 3 3 2 2 2 3 5 6 7 9 9 8 8 9 9 9 10 12 14 15 16 16 17 18 19 19 17 16 14 15 16 16 17 17 17 18 17 17 17 18 17 17 17 17 17 16 16 15 15 14 13 13 12 11 11 11 11 11 10 9 8 7 6 6 5 5 5
16 18 19 19 19 18 16 14 12 11 10 10 8 9 11 11 9 7 6 6 4 2 2 3 4 2 2 4 5 7 7 8 9 10 10 9 8 9 11 12 12 13 14 16 17 17 16 14 13 13 13 14 15 16 17 18 18 18 18 18 17 17 16 16 15 14 14 13 13 12 12 12 11 11 11 11 11 10 10 9 8 7 6 5 5 5 5
16 16 18 19 20 21 19 15 12 9 7 6 6 8 10 11 10 10 9 8 6 4 2 2 3 4 3 1 2 3 4 6 7 8 8 9 8 8 9 9 9 10 11 13 14 15 14 13 13 13 13 13 14 15 16 16 17 17 17 17 17 16 15 14 14 13 13 13 12 12 12 12 13 13 13 13 12 12 11 11 10 9 8 7 7 6 6
17 17 19 20 21 21 19 16 12 10 10 9 9 8 8 8 10 12 11 10 9 7 5 3 2 4 4 3 1 1 2 3 4 5 6 7 7 7 7 8 8 8 9 11 12 12 12 12 12 13 13 13 14 16 16 16 17 17 17 17 16 15 15 14 14 14 14 14 13 12 12 12 12 13 13 13 12 11 11 11 10 9 8 8 7 6 5
20 20 19 19 19 19 17 15 13 13 14 13 11 10 8 7 8 10 12 12 11 10 9 6 3 3 4 4 3 1 1 1 2 3 4 5 6 6 6 6 7 8 9 10 11 11 11 11 12 12 13 13 15 15 16 16 16 16 16 15 15 14 14 13 13 13 12 12 12 13 13 13 13 12 12 11 10 9 9 9 9 8 8 8 7 6 6
19 18 17 17 18 18 18 16 16 17 17 15 13 12 9 7 7 9 11 13 13 13 12 9 6 4 4 5 5 3 3 3 4 5 4 4 4 5 5 5 6 7 8 10 11 10 10 10 11 11 12 13 14 14 14 14 14 14 14 13 13 12 12 11 10 9 9 8 9 10 11 11 11 10 9 8 8 7 7 6 7 8 8 9 9 9 8
19 18 19 21 22 22 21 21 20 20 20 18 15 13 11 9 9 10 10 12 14 15 14 12 10 8 7 7 7 6 5 5 6 5 3 2 3 4 4 4 5 6 7 9 10 10 10 9 9 10 11 12 13 13 13 13 13 13 12 12 11 10 9 8 8 7 7 7 7 7 8 8 8 8 8 8 7 7 6 6 6 7 8 9 10 9 9
23 23 23 23 22 21 21 21 22 21 19 17 16 14 13 12 12 11 10 12 14 16 17 16 15 13 11 11 10 9 8 8 7 6 5 4 3 2 3 3 4 5 5 7 8 8 9 9 9 10 10 10 11 11 12 12 13 12 12 11 10 9 9 9 8 8 7 7 7 7 8 8 8 8 7 7 6 6 6 5 5 6 8 9 10 10 10
Wind_Direction
41 92 107 128 120 104 122 118 76 19 30 76 98 117 159 128 136 196 211 108 111 160 338 341 319 308 280 290 324 312 0 6 76 119 128 133 137 150 153 151 155 151 151 155 146 139 133 126 120 115 109 105 101 99 104 122 143 154 162 167 173 183 195 203 204 203 210 211 210 232 246 250 253 252 237 229 233 237 239 243 248 249 247 246 248 251 256
49 45 76 116 112 96 66 45 35 36 51 75 87 68 65 101 115 154 123 91 58 345 333 331 331 332 19 40 14 15 20 357 358 102 119 133 141 153 153 146 148 142 139 143 142 140 137 132 126 121 117 114 110 106 104 106 114 129 145 150 151 154 155 161 162 165 182 186 182 202 219 221 224 228 221 217 222 229 236 244 254 256 251 249 248 246 247
34 4 33 73 93 107 86 41 22 44 64 55 50 38 28 73 94 112 104 86 41 353 357 355 358 20 50 47 29 21 19 2 7 35 27 36 102 103 84 68 64 69 70 92 123 137 140 138 134 128 124 122 120 118 114 111 111 116 126 124 117 113 103 96 114 132 144 159 168 177 182 175 171 172 176 182 186 183 185 197 213 219 226 230 231 234 241
251 337 54 77 81 84 71 36 8 15 58 69 51 39 15 56 140 126 98 96 58 311 339 15 32 45 48 43 28 20 19 15 27 32 11 8 54 76 66 55 57 62 61 67 85 109 133 137 134 132 131 129 127 127 125 123 122 124 126 121 113 107 99 93 97 105 111 121 129 130 127 123 121 119 116 114 108 101 98 93 88 92 101 121 159 197 244
244 309 18 99 77 65 32 317 329 5 95 114 91 43 17 14 114 126 126 153 224 301 354 44 49 49 47 39 25 21 18 20 34 42 33 29 43 64 69 63 58 59 58 66 77 85 107 135 136 133 132 131 129 128 126 124 126 129 126 126 128 121 110 105 101 95 93 93 100 112 117 114 111 109 105 100 94 86 81 79 75 74 74 72 66 49 24
222 287 333 47 56 89 263 277 261 173 136 114 98 62 12 11 37 96 127 86 22 5 34 68 70 62 55 45 33 33 32 30 37 42 41 41 40 47 57 59 52 43 32 33 51 64 70 87 112 121 125 127 128 129 128 124 122 122 119 121 130 131 126 122 116 110 98 82 86 105 114 111 105 98 87 82 79 71 65 61 57 57 53 38 23 6 352
161 307 29 50 266 223 239 343 69 120 120 104 97 77 29 21 25 39 54 36 13 9 24 63 90 83 71 58 43 33 29 33 42 42 37 37 42 44 51 55 51 46 36 26 25 36 46 56 66 74 94 114 123 128 129 125 118 115 111 108 111 119 129 130 121 120 120 92 90 118 129 120 101 76 56 42 35 27 24 24 21 19 9 354 348 343 339
135 74 70 147 226 218 346 345 26 100 71 68 82 62 21 13 12 18 39 23 6 20 12 347 45 57 41 49 41 25 17 20 34 42 32 26 36 45 67 77 68 59 56 47 34 27 28 39 49 50 55 78 104 116 117 113 108 106 103 97 95 99 102 100 96 97 100 101 103 111 122 115 71 40 19 8 0 351 350 352 348 346 341 336 333 332 330
144 120 102 140 166 180 235 302 322 119 307 322 104 98 22 1 8 7 36 30 18 24 13 339 326 348 24 40 27 7 4 4 9 22 22 19 24 28 50 82 95 92 86 81 66 44 21 33 49 38 20 24 38 67 90 96 93 94 95 87 81 86 93 88 80 79 82 85 89 89 84 67 42 18 3 357 352 345 339 333 327 323 322 320 319 320 322
115 101 93 103 140 210 225 253 281 274 261 256 153 115 62 350 5 8 73 63 34 25 17 354 346 32 48 36 352 341 352 353 355 9 13 14 18 19 23 33 41 54 77 88 75 60 31 20 109 345 343 353 353 354 18 62 61 60 83 87 70 67 85 91 83 78 75 67 67 62 48 38 29 14 2 356 349 341 331 323 316 310 308 310 312 316 321
118 118 138 164 182 220 237 252 278 294 266 225 104 84 48 339 358 355 91 81 54 44 32 8 25 72 69 349 304 328 342 340 347 1 5 8 14 17 20 20 15 14 22 31 27 23 14 7 353 308 274 273 301 311 316 334 5 12 26 226 239 254 164 133 133 135 125 77 34 42 40 32 24 10 -0 358 354 346 339 334 326 314 305 303 305 306 310
133 128 136 158 183 225 261 259 277 302 278 148 103 104 233 227 2 334 98 88 68 62 50 24 44 78 92 285 312 325 325 332 354 10 8 4 8 14 18 20 18 16 17 15 12 10 7 5 2 338 266 250 267 279 283 286 258 249 279 266 243 236 230 202 193 203 205 205 210 149 78 24 10 355 343 342 340 334 331 329 327 321 309 299 296 295 296
79 103 106 86 196 258 304 293 301 318 304 143 137 209 216 169 147 177 103 96 89 75 69 60 65 75 273 281 299 312 324 340 354 3 4 2 4 9 10 9 9 11 10 7 5 4 3 2 0 351 307 249 245 256 266 268 253 244 253 253 241 236 236 229 219 215 210 210 212 213 234 275 306 317 320 322 322 319 318 316 313 308 299 291 289 287 286
41 87 103 102 168 336 332 320 329 350 13 166 182 223 173 132 147 152 92 91 104 90 84 105 159 252 279 282 291 313 334 339 337 345 355 357 354 356 359 360 -0 1 358 356 354 352 353 355 355 357 344 272 252 261 266 264 260 255 248 241 238 236 235 232 226 219 216 219 224 232 246 260 276 292 303 308 309 311 314 314 310 299 288 283 280 277 278
41 63 74 115 147 333 330 328 354 19 52 151 137 58 61 97 141 135 94 82 112 108 84 160 238 257 283 289 298 315 318 321 331 336 342 345 341 342 346 348 350 350 346 345 345 340 342 347 351 357 354 322 286 277 276 275 273 263 248 237 234 234 232 231 227 223 224 229 234 241 249 257 264 271 276 281 287 295 302 310 312 298 278 271 268 267 269
61 86 83 125 167 307 331 11 79 43 14 111 144 123 85 65 119 113 87 32 285 200 180 297 276 269 289 297 305 316 312 317 330 325 325 331 330 331 335 335 336 335 328 325 330 329 328 333 339 348 355 348 326 301 290 285 272 250 238 233 230 226 222 218 217 219 223 226 231 235 241 248 253 252 251 252 256 269 282 288 288 281 270 261 258 258 260
77 105 114 128 168 286 346 46 95 90 13 19 102 116 100 69 29 90 97 23 303 269 247 300 297 286 300 308 308 306 301 304 314 315 319 325 326 327 328 329 330 327 319 313 314 316 317 318 318 324 336 343 341 330 314 290 256 229 221 218 213 208 206 207 211 215 216 216 220 224 229 236 241 243 244 247 252 261 270 272 270 268 263 257 253 251 252
82 68 66 94 116 352 14 39 62 80 64 48 77 93 96 115 244 220 160 247 291 296 314 332 315 298 304 308 302 298 301 302 307 313 318 324 330 332 331 334 335 331 323 315 309 307 310 311 309 307 311 318 323 326 323 301 264 245 237 226 215 210 210 212 216 219 221 223 226 229 233 237 241 246 249 253 258 261 263 264 263 259 257 255 251 248 248
105 89 73 170 141 148 109 82 61 56 66 78 106 109 135 185 213 258 261 261 281 299 327 321 292 286 295 302 298 300 304 301 302 308 312 316 324 328 328 330 332 329 323 317 311 306 304 306 308 306 302 300 300 302 303 292 270 262 262 258 250 240 230 224 223 225 229 233 236 240 245 249 251 255 255 256 257 256 256 256 255 252 250 248 245 244 244
112 190 237 250 237 248 208 128 121 116 122 153 7 85 129 140 66 353 351 9 345 351 354 331 298 292 297 298 297 298 297 294 298 303 307 311 318 325 328 330 330 327 320 312 305 300 297 299 305 306 301 297 292 291 293 289 273 261 258 255 251 244 234 228 229 231 236 241 244 247 251 252 253 253 251 251 252 251 251 251 249 247 244 240 241 244 243
30 280 280 357 23 310 310 353 12 266 194 190 355 20 48 57 39 16 15 29 47 52 26 4 356 334 315 308 309 307 303 303 305 308 311 314 318 322 325 328 329 327 323 317 309 301 296 295 298 298 297 296 289 283 282 282 276 266 258 249 241 234 229 228 232 237 242 247 251 254 256 257 256 254 252 250 250 251 251 250 249 248 245 244 247 249 246
339 257 246 158 139 238 269 279 306 281 245 180 83 65 70 61 33 10 12 15 22 33 24 9 1 340 314 312 315 308 298 298 305 310 311 312 313 316 318 319 320 320 320 321 319 313 307 303 298 290 286 284 280 274 271 270 267 259 250 243 237 232 230 233 238 243 248 252 256 260 262 264 264 263 260 256 254 252 251 247 246 245 247 251 255 254 251
213 228 220 184 148 210 246 230 246 262 238 143 112 112 118 96 63 121 108 37 4 2 3 1 352 325 308 314 315 305 296 299 302 305 304 301 301 305 305 304 306 308 309 312 315 316 316 314 308 299 288 278 274 270 262 255 252 246 239 235 233 232 233 238 243 247 252 256 259 262 264 266 267 267 265 262 259 258 256 253 250 248 249 252 253 251 249
208 229 214 184 164 206 227 209 223 251 188 127 114 112 121 117 98 106 101 63 9 337 335 346 346 333 321 322 320 310 305 308 308 307 305 302 300 299 298 295 296 299 298 298 300 305 310 311 310 310 303 286 275 269 258 245 240 236 232 231 232 234 238 243 248 253 256 259 263 267 269 270 268 266 264 259 255 256 260 261 256 250 246 246 245 244 243
161 198 198 178 179 208 218 168 101 55 106 119 114 87 82 85 70 72 72 42 12 354 334 331 337 336 331 327 325 319 313 312 313 312 310 307 305 302 300 299 299 298 296 292 290 291 296 299 302 307 307 297 287 280 265 249 240 236 235 237 241 247 252 254 255 258 260 263 268 271 272 272 269 264 260 255 248 245 251 254 249 241 235 235 238 236 228
150 162 154 106 89 237 235 85 57 60 94 110 112 88 63 68 60 47 40 24 5 356 343 327 327 331 331 326 322 318 313 311 311 310 307 304 303 303 301 299 298 296 294 290 284 280 282 288 294 301 302 300 305 302 278 254 244 242 245 251 256 258 259 258 257 261 266 268 272 274 274 276 274 265 260 256 247 235 225 215 207 204 197 193 204 209 199
159 150 118 68 339 313 300 225 173 155 126 112 111 100 60 55 51 31 17 358 341 338 334 326 323 324 322 319 317 316 313 310 307 305 302 299 299 298 297 295 294 292 290 287 281 277 280 283 289 295 294 293 307 314 286 253 247 252 257 261 263 261 261 262 263 267 271 274 278 282 282 282 278 266 256 249 239 225 213 195 171 155 146 148 161 177 177
213 198 135 158 221 244 218 147 146 150 141 124 121 106 57 34 19 13 357 328 319 321 319 318 318 314 308 308 311 312 312 310 308 305 301 299 298 296 295 294 293 290 287 284 280 280 283 285 288 291 287 284 299 315 294 254 249 259 262 261 263 262 260 263 265 267 276 284 288 291 289 286 278 261 244 233 224 214 201 182 160 143 136 138 146 154 158
232 251 128 150 167 152 133 126 134 149 165 163 148 97 56 29 354 341 316 303 311 315 309 308 310 306 301 302 302 303 307 309 308 306 303 300 299 299 297 294 291 287 283 280 278 278 279 281 284 286 281 276 286 307 298 257 247 257 258 251 253 251 241 248 263 274 294 308 306 300 294 279 257 233 214 205 200 189 172 157 145 137 134 136 138 139 142
250 230 147 131 120 121 128 141 165 196 212 189 162 92 62 56 335 308 296 300 307 302 295 299 303 302 302 301 298 299 306 308 305 303 302 301 301 301 299 294 290 285 278 273 272 273 273 274 275 276 274 271 274 290 293 259 240 242 238 222 217 211 206 239 293 59 56 43 33 22 201 196 194 186 176 169 165 157 147 140 135 131 131 135 137 137 138
228 200 152 143 132 133 150 175 186 203 221 166 146 149 74 69 325 294 289 297 298 291 291 297 299 298 301 302 302 305 308 306 302 301 303 304 304 304 302 296 289 283 276 273 271 270 270 270 268 268 269 265 262 270 278 249 223 215 200 185 177 163 140 107 102 93 77 63 67 95 120 138 147 149 146 142 138 135 132 131 130 132 135 139 141 142 143
146 141 152 175 176 172 185 183 169 183 205 174 180 217 212 205 261 274 276 284 287 288 293 295 294 298 305 309 310 313 313 311 309 309 311 312 312 311 310 305 295 285 279 275 271 267 265 263 263 266 269 261 251 253 254 229 211 197 173 167 169 163 149 133 120 104 81 69 78 90 100 113 126 131 131 130 129 130 132 133 135 140 145 148 147 147 148
140 164 241 234 216 212 217 193 170 183 201 205 219 229 223 228 247 258 267 278 285 289 293 293 297 308 317 319 319 322 322 320 318 318 319 319 319 320 322 319 310 300 290 281 276 270 264 260 261 265 269 258 241 235 225 213 206 191 164 156 158 155 160 151 137 116 70 47 57 75 88 99 113 123 127 129 132 135 139 141 143 147 149 149 148 149 152
176 201 218 208 197 200 200 187 187 202 209 224 245 240 236 247 258 264 275 282 285 289 295 299 306 317 326 330 333 335 332 326 320 318 320 323 326 329 331 331 329 325 313 300 294 285 269 260 259 261 261 247 224 209 203 202 199 182 157 145 133 127 147 153 147 124 20 6 19 68 97 104 113 125 131 135 138 141 143 144 145 147 147 145 149 157 164
209 219 221 210 203 198 185 179 189 201 199 217 246 245 249 262 267 272 280 284 288 300 308 312 318 326 331 340 347 344 336 328 323 323 325 331 335 336 338 341 345 349 352 351 351 330 279 262 256 247 234 213 193 189 189 183 173 159 146 140 143 153 160 163 172 310 342 353 27 105 117 117 121 127 133 135 136 138 140 141 144 149 153 155 162 171 175
208 201 201 204 203 197 188 186 193 199 202 217 238 249 261 271 274 278 285 292 303 315 321 325 329 332 332 347 351 344 336 332 334 335 338 343 344 343 345 349 354 0 7 11 14 17 343 236 201 183 180 174 169 171 168 158 149 143 141 143 149 156 161 166 154 65 38 56 112 134 140 142 141 140 139 140 139 140 144 149 155 162 166 170 172 171 167
207 197 190 192 191 188 188 191 199 211 222 234 247 257 267 275 282 289 295 302 313 324 329 332 334 333 332 339 343 341 342 346 349 350 354 356 355 352 355 2 8 11 9 6 14 34 69 113 130 140 151 156 153 153 152 146 140 140 143 144 141 139 140 136 123 110 98 98 117 133 148 162 167 167 163 158 154 152 155 158 160 160 161 162 162 159 156
211 205 197 195 194 192 191 193 203 219 230 243 260 270 277 283 290 297 303 311 323 333 334 331 332 331 327 328 335 342 352 0 2 6 10 10 6 2 5 10 13 11 4 4 22 54 84 106 122 134 143 144 141 140 140 140 139 142 147 146 139 138 142 138 128 119 113 113 121 126 131 142 153 157 157 157 153 148 147 148 148 148 147 147 148 149 149
195 193 191 191 193 196 198 202 213 225 233 248 267 282 292 296 297 303 313 328 342 349 343 331 341 340 330 326 342 353 4 9 10 12 16 17 15 16 21 22 21 20 21 29 47 71 93 108 118 124 128 130 130 131 133 134 136 141 147 146 140 142 147 144 135 129 126 126 127 126 124 125 129 133 136 139 139 137 138 140 140 140 141 142 143 144 145
189 187 187 189 195 204 214 220 227 232 236 248 265 284 297 297 296 313 338 346 353 7 67 34 14 8 334 317 353 5 13 17 18 19 21 22 23 26 28 26 26 32 43 53 63 78 97 108 113 115 118 124 131 136 136 135 137 142 146 146 144 144 144 141 137 134 133 132 131 127 123 122 122 123 125 127 129 130 132 134 135 136 138 140 141 143 145
201 197 193 194 202 214 223 230 237 242 243 252 268 281 283 274 281 316 341 348 357 29 99 64 41 39 69 65 26 23 24 26 27 30 31 29 26 27 26 22 26 36 49 59 68 81 96 106 111 116 120 129 138 141 141 142 145 145 144 144 145 143 141 140 138 136 134 132 129 126 124 124 122 121 121 124 126 127 130 131 132 134 137 139 140 143 145
209 204 200 202 211 220 226 234 247 256 258 265 278 281 265 251 265 300 324 343 0 54 116 81 62 71 102 97 70 52 43 36 33 36 39 37 32 29 26 26 33 44 54 61 68 77 85 93 104 115 123 129 134 138 141 142 142 140 138 139 140 139 138 136 134 131 129 128 126 124 125 126 124 122 122 123 124 126 128 130 130 131 133 135 138 141 144
215 208 203 207 216 223 227 234 246 257 265 275 283 271 242 236 257 280 285 317 351 0 152 113 84 83 96 96 82 67 55 43 36 39 45 49 49 47 45 44 47 52 55 59 64 71 76 83 94 108 119 125 128 133 136 136 134 134 134 134 132 130 129 128 126 125 124 124 123 123 124 125 125 124 125 125 125 127 129 130 130 130 131 133 135 138 141
217 210 208 212 219 223 227 233 241 251 263 276 280 259 234 232 247 263 260 276 318 313 222 161 111 88 83 84 81 71 58 46 42 45 48 48 49 52 55 58 58 56 56 58 62 66 70 78 90 103 115 123 128 132 132 130 130 131 130 128 125 123 121 120 120 121 120 119 119 119 121 122 124 126 128 128 129 131 132 131 131 132 133 135 137 139 142
218 214 213 215 219 223 227 231 238 249 264 277 279 259 240 235 238 245 246 249 276 305 282 231 180 114 88 85 85 79 70 60 58 59 55 44 36 40 50 57 59 59 60 63 66 68 71 77 88 99 109 117 123 125 124 122 123 124 123 121 121 120 118 116 116 116 116 115 115 115 116 118 121 124 129 132 133 134 133 132 133 137 142 148 153 155 157
222 220 217 216 219 223 227 233 241 251 266 279 276 256 243 240 240 243 243 239 241 272 295 263 236 211 128 100 97 95 90 80 70 67 66 62 53 47 50 54 57 60 64 69 73 77 79 81 85 92 101 108 113 113 113 113 115 115 115 115 114 113 112 111 111 110 110 111 111 111 112 112 112 113 117 120 119 117 115 114 114 115 117 126 135 137 141
224 221 218 218 221 223 227 234 242 241 239 245 251 249 247 245 243 245 245 240 235 240 257 256 241 235 227 168 88 101 109 100 86 78 74 73 70 64 56 53 55 62 68 72 77 81 84 85 87 92 97 102 104 105 106 107 108 108 107 106 105 104 103 104 105 106 106 106 106 107 109 109 106 104 107 109 109 108 106 104 103 103 104 109 116 122 125
223 220 220 222 223 224 225 228 226 216 210 216 233 249 260 263 258 252 245 235 229 229 232 231 226 226 229 238 277 85 107 96 83 82 83 78 73 69 64 59 60 67 77 82 83 84 88 91 94 96 99 100 101 103 105 105 105 105 104 102 102 102 103 105 107 107 106 103 102 104 110 113 111 108 108 109 109 109 107 103 101 102 104 109 114 119 121
225 224 224 224 223 223 222 220 217 217 220 225 234 247 264 281 279 261 244 230 222 222 224 222 215 206 209 217 219 180 118 99 99 108 108 95 80 74 72 70 68 71 80 87 89 89 93 97 100 101 103 103 104 106 107 107 106 105 104 103 103 104 107 110 113 113 111 109 106 106 108 113 115 114 112 111 111 109 105 99 94 89 88 92 97 100 103
226 223 222 222 223 223 221 220 222 227 230 230 234 243 252 264 273 265 248 231 220 217 218 219 218 205 192 190 189 175 151 137 133 128 122 108 93 86 84 83 81 79 80 85 88 91 96 103 106 106 106 107 107 109 111 111 111 109 107 105 106 107 110 113 114 112 113 116 117 112 109 112 117 117 113 111 111 109 104 96 87 79 77 81 86 88 89
223 219 220 223 227 228 227 227 231 235 236 235 235 237 237 240 253 262 252 231 218 213 211 209 209 206 196 185 178 174 167 157 151 150 152 139 114 101 94 97 100 95 88 85 85 86 89 97 106 111 113 113 112 112 113 114 115 114 112 110 110 109 108 109 108 108 110 116 118 111 106 110 118 119 114 107 103 100 95 87 78 73 74 78 82 85 87
223 222 223 225 227 229 231 233 236 238 239 239 238 234 230 232 241 248 243 230 222 219 215 211 210 210 205 196 188 183 179 175 174 179 187 184 162 128 110 115 123 121 108 98 91 87 86 91 101 109 115 116 116 116 117 119 121 121 120 119 117 112 107 103 103 105 110 113 112 106 105 110 115 116 112 105 96 88 79 70 65 70 78 81 81 81 83